GRBBeta
1 60237U 24128C   26261.44983535  .00002561  00000-0  18229-3 0  9992
2 60237  61.9884 248.9087 0026972 155.1998 205.0398 15.07190865120325
Curium One
1 60242U 24128H   26261.48151441  .00005046  00000-0  28934-3 0  9990
2 60242  61.9774 235.0364 0026149 149.7471 210.5142 15.13660731120571
ROBUSTA-3A
1 60243U 24128J   26261.63278598  .00004146  00000-0  24594-3 0  9999
2 60243  61.9850 237.5031 0028161 146.5281 213.7602 15.12745318120553
CatSat
1 60246U 24125J   26261.37082520  .00106600  00000-0  79289-3 0  9997
2 60246  97.1940 115.9002 0015246 184.1406 175.9734 15.72338818121961
AO-123
1 61781U 24199AY  26261.82784480  .00005980  00000-0  16766-3 0  9997
2 61781  97.2840 129.6597 0012650 339.9715  20.1032 15.36892407148304
LASARsat
1 62391U 24247Q   26259.92618275  .00038564  00000-0  62382-3 0  9994
2 62391  44.9712 104.4860 0009459 214.7674 145.2600 15.52187404 97541
CroCube
1 62394U 24247T   26258.94955211  .00044933  00000-0  65387-3 0  9997
2 62394  44.9692 105.5148 0010096 218.5695 141.4478 15.55031035 97447
JINJUSat 1B
1 63210U 25052A   26261.50434223  .00012535  00000-0  35756-3 0  9991
2 63210  97.3859 158.4992 0005193 101.5656 258.6172 15.36179289 84414
NUSHSAT 1
1 63211U 25052B   26261.44098437  .00017322  00000-0  44422-3 0  9997
2 63211  97.3832 159.3718 0004946 103.6155 256.5642 15.39404458 84471
TEVEL2-4
1 63213U 25052D   26260.68141367  .00014810  00000-0  40274-3 0  9995
2 63213  97.3752 157.3605 0004321 113.3720 246.7980 15.37632783 84311
TEVEL2-5
1 63214U 25052E   26261.49486755  .00014145  00000-0  38733-3 0  9997
2 63214  97.3755 158.0960 0004257 114.1326 246.0364 15.37428968 84436
TEVEL2-6
1 63215U 25052F   26261.50926385  .00014679  00000-0  40221-3 0  9995
2 63215  97.3757 158.0953 0004217 114.8567 245.3116 15.37399635 84436
TEVEL2-1
1 63217U 25052H   26260.66248791  .00014019  00000-0  39268-3 0  9998
2 63217  97.3731 156.7510 0004076 125.1283 235.0344 15.36725625 84280
TEVEL2-3
1 63218U 25052J   26261.49956907  .00013725  00000-0  38328-3 0  9995
2 63218  97.3734 157.6270 0003857 122.5905 237.5712 15.36826707 84419
TEVEL2-2
1 63219U 25052K   26261.44345333  .00014357  00000-0  40159-3 0  9993
2 63219  97.3729 157.5387 0004161 124.0768 236.0871 15.36762640 84409
TEVEL2-9
1 63237U 25052AD  26260.70078303  .00012033  00000-0  36197-3 0  9997
2 63237  97.3791 155.9520 0006509 152.5422 207.6166 15.34508258 84200
TEVEL2-7
1 63238U 25052AE  26261.47902802  .00012018  00000-0  36552-3 0  9991
2 63238  97.3793 156.6023 0006539 151.6338 208.5262 15.34160056 84317
TEVEL2-8
1 63239U 25052AF  26261.16192927  .00011984  00000-0  36466-3 0  9992
2 63239  97.3792 156.2599 0006556 151.7923 208.3676 15.34143407 84263
SPIRONE
1 66657U 25274H   26261.57046892  .00001427  00000-0  13953-3 0  9996
2 66657  97.7482 189.5437 0013547  66.1668 294.0970 14.93855091 44160
K-HERO
1 66660U 25274L   26261.54984893  .00001759  00000-0  16893-3 0  9993
2 66660  97.7491 189.7520 0015417  69.9156 290.3722 14.94248246 44174
SNUGLITE-III DURI
1 66661U 25274M   26261.53624509  .00001335  00000-0  12955-3 0  9993
2 66661  97.7487 189.7588 0016006  70.7963 289.4988 14.94254027 44172
SAKHACUBE-CHOLBON
1 67290U 25313AU  26261.49194124  .00007121  00000-0  27627-3 0  9997
2 67290  97.3855 335.4190 0009559  35.7955 324.3922 15.26373748 40207
RS95S (QMR-KWT-2)
1 67291U 25313AV  26261.43871697  .00010335  00000-0  37511-3 0  9993
2 67291  97.3844 335.7841 0008824  33.4783 326.7013 15.28472222 40228
Ten-Koh2
1 68261U 25241B   26261.63179150  .00004423  00000-0  18866-3 0  9991
2 68261  51.6580 234.5363 0008217  95.3029 264.8887 15.24905072 29168
JACK-002
1 68417U 26067B   26261.12132702  .00005571  00000-0  25888-3 0  9994
2 68417  97.4671 218.6786 0001503  22.1666 337.9634 15.20392383 26067
DISCO 2
1 68431U 26067R   26261.35218603  .00006394  00000-0  29733-3 0  9997
2 68431  97.4705 218.9084 0003701  59.7969 300.3633 15.20306739 26095
HADES-SA (SpinnyONE)
1 68446U 26067AG  26260.68333669  .00016446  00000-0  72324-3 0  9991
2 68446  97.4496 217.8291 0008916 106.0571 254.1647 15.21922373 25981
PARUS-6U1
1 68456U 26067AS  26261.59730178  .00004086  00000-0  20210-3 0  9993
2 68456  97.4659 218.6305 0007445  96.8130 263.3951 15.18359505 26103
SAL-E
1 68458U 26067AU  26261.63354417  .00006303  00000-0  30488-3 0  9990
2 68458  97.4580 218.5662 0007742 103.4476 256.7622 15.18924225 26110
FSI-SAT 2
1 68792U 26088A   26261.36722117  .00003949  00000-0  26390-3 0  9990
2 68792  97.5195  48.4033 0014944 145.1933 215.0276 15.07460395 22322
OrigamiSat 2
1 68795U 26088D   26261.68477841  .00009629  00000-0  58470-3 0  9994
2 68795  97.5191  49.2015 0015555 116.4407 243.8421 15.10608522 22406
ARICA 2
1 68796U 26088E   26261.67523492  .00003275  00000-0  21011-3 0  9990
2 68796  97.5198  49.0474 0016850 115.9311 244.3656 15.09066404 22397
WASEDA-SAT-ZERO-II
1 68797U 26088F   26260.38981778  .00004621  00000-0  29109-3 0  9995
2 68797  97.5186  47.8404 0016467 119.6288 240.6584 15.09536623 22206
MANGARO-II-Piscus
1 68798U 26088G   26260.64705158  .00003120  00000-0  19860-3 0  9997
2 68798  97.5200  48.1324 0020049 122.0644 238.2535 15.09344205 22240
CO-128
1 69912U 26156AV  26261.49876470  .00000979  00000-0  10475-3 0  9994
2 69912  97.7471 160.6426 0000934 251.4423 108.6694 14.90951897 10903
MARINA
1 69920U 26156BD  26261.17256653  .00001411  00000-0  14405-3 0  9992
2 69920  97.7442 160.4273 0005873 275.5769  84.4781 14.92173832 10865
IO-86
1 40931U          26199.45381863  .00000000  00000-0  77536-4 0    07
2 40931   6.0006 322.6653 0012733 338.8432 273.6875 14.79294310    03
LILIUM-4                
1 71922C 26067AC  26089.50133053 -.00014632  00000+0 -74472-3 0    04
2 71922  97.4497  49.1617 0004341   5.9603 355.7042 15.16896692    16
